Flag for Taiwan Weather past 2 weeks in Kaohsiung, Taiwan

Now
84 °F

Partly cloudy.


Feels Like: 96 °F
Forecast: 79 / 89 °F
Wind: 10 mph from Southwest

Location: Kaohsiung International Airport

Current Time: Jul 24, 2014 at 10:06:18 PM

Latest Report: Jul 24, 2014 at 9:30 PM


Visibility: N/A

Pressure: 29.74 "Hg

Humidity: 84%

Dew point: 79 °F

Location of KaohsiungLocation

Historic Weather in Kaohsiung — Graph

°F

Kaohsiung temperature yesterday

Maximum temperature yesterday: 86 °F (at 9:00 AM)
Minimum temperature yesterday: 79 °F (at 7:00 AM)
Average temperature yesterday: 83 °F

Past Weeks' High & Low Weather Summary

 TemperatureHumidityPressure
High93 °F (Jul 10, 1:30 PM)100% (Jul 18, 4:30 PM)29.89 "Hg (Jul 18, 4:30 PM)
Low77 °F (Jul 19, 2:55 PM)56% (Jul 10, 1:30 PM)29.18 "Hg (Jul 22, 11:30 PM)
Average86 °F78%29.72 "Hg
* Reported Jul 9 9:00 PM — Jul 24 8:30 PM, Kaohsiung, Weather by CustomWeather, © 2014

Note: Actual official high and low records may vary slightly from our data, if they occured in-between our weather recording intervals... More about our weather records

Advertising

Kaohsiung weather history for previous 24 hours

 ConditionsComfort  
Time TempWeatherWind HumidityBarometerVisibility
8:30 PM
Jul 24
84 °FPassing clouds.12 mph84%29.71 "HgN/A
8:00 PM84 °FPassing clouds.10 mph84%29.68 "HgN/A
7:30 PM84 °FPartly cloudy.9 mph84%29.68 "HgN/A
7:00 PM84 °FPartly cloudy.9 mph89%29.68 "HgN/A
6:48 PM84 °FPartly cloudy.9 mph89%29.68 "HgN/A
6:30 PM82 °FSprinkles. Cloudy.8 mph89%29.65 "Hg4 mi
6:00 PM82 °FBroken clouds.12 mph84%29.65 "Hg6 mi
5:30 PM86 °FBroken clouds.10 mph79%29.65 "HgN/A
5:00 PM84 °FBroken clouds.10 mph84%29.68 "Hg6 mi
4:30 PM84 °FBroken clouds.12 mph84%29.68 "Hg6 mi
4:00 PM86 °FScattered showers. Cloudy.12 mph84%29.68 "Hg5 mi
3:30 PM86 °FSprinkles. Cloudy.10 mph84%29.68 "Hg5 mi
3:04 PM86 °FThundershowers. Cloudy.12 mph84%29.68 "Hg5 mi
2:30 PM86 °FSprinkles. Cloudy.14 mph84%29.68 "Hg4 mi
2:00 PM88 °FBroken clouds.13 mph79%29.68 "HgN/A
1:30 PM88 °FBroken clouds.12 mph79%29.68 "HgN/A
1:00 PM88 °FBroken clouds.12 mph79%29.68 "HgN/A
12:30 PM88 °FBroken clouds.9 mph79%29.71 "HgN/A
12:00 PM88 °FBroken clouds.13 mph79%29.68 "HgN/A
11:30 AM88 °FBroken clouds.13 mph84%29.71 "Hg5 mi
11:00 AM88 °FSprinkles. Broken clouds.15 mph75%29.68 "Hg5 mi
10:30 AM88 °FSprinkles. Broken clouds.10 mph79%29.68 "Hg5 mi
10:04 AM84 °FSprinkles. Broken clouds.10 mph89%29.68 "Hg3 mi
9:52 AM88 °FSprinkles. Broken clouds.8 mph79%29.68 "Hg2 mi
9:30 AM88 °FScattered showers. Broken clouds.10 mph79%29.68 "Hg5 mi
8:30 AM86 °FScattered showers. Broken clouds.12 mph84%29.68 "Hg5 mi
8:00 AM86 °FScattered showers. Broken clouds.12 mph84%29.68 "Hg5 mi
7:30 AM86 °FScattered showers. Broken clouds.14 mph79%29.68 "Hg5 mi
7:00 AM86 °FScattered showers. Broken clouds.12 mph79%29.65 "HgN/A
6:30 AM84 °FBroken clouds.10 mph84%29.65 "HgN/A
6:00 AM84 °FPartly sunny.8 mph84%29.65 "HgN/A
5:46 AM84 °FBroken clouds.8 mph84%29.65 "HgN/A
5:00 AM84 °FPassing clouds.10 mph89%29.65 "HgN/A
4:00 AM84 °FPassing clouds.10 mph89%29.62 "HgN/A
3:00 AM84 °FPartly cloudy.8 mph89%29.62 "HgN/A
2:00 AM84 °FPartly cloudy.9 mph89%29.62 "HgN/A
1:00 AM86 °FPartly cloudy.13 mph84%29.65 "HgN/A
12:00 AM86 °FPassing clouds.13 mph84%29.65 "HgN/A
11:30 PM
Jul 23
86 °FPassing clouds.9 mph79%29.65 "HgN/A
11:00 PM86 °FPartly cloudy.15 mph79%29.65 "HgN/A
10:30 PM86 °FPartly cloudy.15 mph79%29.62 "HgN/A
10:00 PM86 °FPartly cloudy.13 mph79%29.62 "HgN/A
Weather by CustomWeather, © 2014

See weather overviewHow to use our weather pages